Probability
58 55 55 52 52 52 52 48 52 52 52 52 48 42 42 42 35 39 39 39 39 42 39 35 32 29 23 19 19 26 23 29 23 19 23 19 23 19 16 19 19 19 13
55 52 48 52 52 52 52 52 52 48 48 48 45 45 39 35 42 42 39 39 39 39 42 35 29 26 29 26 23 29 26 26 29 29 26 23 23 23 23 23 16 10 16
48 52 55 48 45 42 45 42 42 42 42 39 39 39 39 39 39 39 39 39 42 39 39 39 35 32 32 29 32 26 26 26 26 29 26 23 23 23 23 19 13 23 10
48 52 52 52 48 35 42 42 42 42 45 35 35 35 35 35 35 35 35 35 35 35 35 42 35 35 35 35 29 32 29 29 26 29 26 23 19 16 19 23 16 16 13
45 52 48 48 48 52 48 39 39 39 39 35 35 32 35 32 32 32 32 32 32 35 35 39 42 32 29 29 23 26 26 29 29 29 23 19 13 19 16 23 13 16 16
42 45 42 48 52 52 52 52 45 35 39 39 35 35 32 23 13 10 19 29 32 32 39 39 39 29 13 3 0 0 16 23 26 29 23 23 23 16 23 13 16 16 10
45 35 42 45 45 48 48 52 52 42 39 39 39 32 29 26 10 6 3 19 29 39 32 35 32 23 16 32 10 0 0 0 0 29 26 26 23 19 19 19 19 16 19
45 42 42 42 39 39 42 48 45 45 42 48 42 35 35 23 10 6 3 13 26 23 32 35 35 35 19 26 26 23 26 16 6 6 16 16 10 13 13 16 19 19 19
42 42 39 39 39 35 35 45 45 45 45 42 42 39 35 26 10 6 0 19 26 26 26 32 32 29 13 3 13 19 23 26 6 0 0 0 3 0 6 10 13 16 10
39 39 39 42 42 42 45 42 42 42 39 39 35 35 32 32 16 6 0 23 29 29 29 32 16 16 10 0 13 19 23 23 19 13 3 0 0 3 0 10 13 16 13
32 35 35 39 35 39 35 35 35 35 35 39 35 32 35 29 19 3 0 19 26 29 26 23 23 6 0 0 0 13 16 16 26 26 19 13 16 13 10 10 13 13 10
32 32 32 26 29 23 26 32 29 29 32 32 32 29 35 26 16 13 0 0 10 19 26 26 16 6 0 0 0 0 0 0 16 19 13 13 16 10 13 13 13 13 13
32 32 26 23 19 19 19 29 32 29 29 23 29 26 23 19 16 6 0 0 0 10 19 16 6 0 0 0 0 0 0 0 10 10 6 3 10 13 16 16 16 19 16
32 26 23 19 16 16 23 19 19 23 23 29 32 29 29 29 23 19 13 6 0 0 13 3 0 0 0 0 3 0 0 6 6 10 6 3 0 0 10 10 13 13 13
26 19 16 19 16 19 16 16 16 16 16 16 16 23 26 29 19 13 23 23 19 16 13 16 16 6 6 6 6 6 6 0 0 0 3 3 0 0 3 3 3 3 3
26 19 19 13 16 16 13 13 6 6 6 3 6 6 10 6 6 3 6 6 3 3 6 16 19 19 6 6 6 6 6 6 3 0 3 0 0 3 3 3 3 3 3
19 16 16 19 16 13 10 10 6 3 3 3 0 0 0 0 0 0 0 0 0 0 3 6 13 10 6 3 3 3 3 3 3 0 3 3 0 3 3 3 3 3 3
10 6 10 13 10 6 6 6 3 3 6 6 0 0 0 0 0 0 0 0 0 0 6 10 6 10 6 3 3 3 0 3 3 3 0 3 3 3 3 3 6 6 3
10 10 3 3 3 3 3 3 3 3 3 6 13 3 0 0 0 0 0 0 3 3 6 6 3 3 6 6 3 0 0 0 3 3 3 3 3 3 3 3 0 0 0
6 3 3 3 3 3 6 6 6 6 6 6 6 10 3 3 3 3 0 0 3 3 3 3 3 3 3 3 0 0 3 3 3 3 3 3 3 3 0 0 0 0 0
6 3 3 3 3 3 3 3 3 3 3 6 10 3 0 0 3 3 3 3 3 3 3 3 3 3 0 0 0 0 0 3 0 0 0 0 0 0 0 0 0 0 0
6 6 3 3 3 3 3 3 6 6 10 10 10 3 0 0 0 3 6 6 3 3 3 6 6 3 3 0 0 0 0 0 0 0 0 0 0 0 0 0 0 0 0
3 3 3 3 3 3 3 3 3 6 6 6 3 3 0 0 3 3 3 6 6 6 6 3 0 0 0 0 0 0 0 0 0 0 0 0 0 0 0 0 0 0 0
3 3 3 3 3 3 3 3 3 3 3 3 3 3 3 0 0 3 3 3 3 3 3 3 0 0 0 0 0 0 0 0 0 3 0 0 0 0 0 0 0 0 0
0 3 3 3 3 3 3 3 3 3 3 3 6 3 3 0 0 0 0 3 3 3 3 0 0 0 0 0 0 3 0 0 0 0 3 0 0 0 0 0 0 0 0
0 3 3 6 3 6 6 6 6 6 6 3 6 6 3 0 0 0 0 3 3 3 3 3 3 3 3 0 0 0 0 0 0 0 0 0 0 0 0 0 0 0 0
Height
5876 5875 5874 5873 5872 5871 5869 5868 5867 5865 5864 5863 5861 5860 5859 5858 5857 5856 5854 5853 5852 5851 5849 5848 5847 5846 5845 5844 5843 5842 5841 5840 5839 5838 5837 5835 5834 5833 5832 5831 5830 5829 5829
5872 5871 5870 5869 5868 5866 5865 5863 5862 5860 5859 5858 5856 5855 5854 5853 5852 5851 5849 5848 5847 5846 5845 5844 5842 5841 5841 5840 5839 5838 5837 5835 5834 5833 5832 5831 5830 5829 5827 5826 5825 5824 5823
5868 5867 5865 5864 5863 5861 5860 5858 5857 5855 5854 5853 5851 5850 5849 5847 5846 5845 5844 5842 5841 5840 5839 5838 5837 5836 5835 5834 5833 5832 5831 5830 5829 5828 5827 5826 5825 5824 5822 5821 5820 5818 5817
5862 5861 5860 5859 5857 5856 5855 5853 5851 5850 5849 5847 5846 5844 5843 5841 5840 5839 5837 5836 5835 5834 5833 5832 5831 5830 5830 5829 5828 5827 5826 5825 5824 5822 5821 5820 5819 5818 5817 5816 5814 5813 5811
5857 5856 5854 5853 5852 5850 5849 5847 5846 5844 5843 5841 5839 5838 5836 5835 5833 5832 5831 5829 5829 5828 5827 5826 5825 5824 5823 5823 5822 5821 5820 5819 5817 5816 5815 5814 5813 5812 5811 5809 5808 5806 5805
5851 5849 5848 5847 5845 5844 5842 5841 5839 5838 5836 5835 5833 5831 5830 5828 5827 5825 5824 5823 5822 5821 5821 5820 5819 5818 5817 5816 5815 5815 5813 5812 5811 5810 5809 5807 5806 5805 5803 5802 5801 5800 5798
5844 5843 5841 5840 5839 5837 5836 5835 5833 5831 5830 5828 5826 5824 5823 5821 5820 5818 5817 5816 5815 5814 5814 5813 5812 5811 5810 5809 5808 5808 5807 5805 5804 5803 5802 5800 5799 5798 5796 5795 5793 5792 5791
5836 5835 5834 5833 5831 5830 5829 5827 5826 5824 5823 5821 5818 5817 5815 5814 5813 5811 5810 5809 5808 5807 5806 5805 5805 5804 5802 5801 5801 5800 5799 5798 5797 5796 5794 5793 5791 5790 5789 5787 5786 5784 5783
5828 5827 5826 5825 5824 5823 5821 5819 5818 5816 5815 5813 5811 5809 5807 5806 5805 5804 5803 5801 5800 5799 5798 5798 5797 5796 5796 5794 5793 5792 5791 5790 5789 5787 5786 5785 5783 5782 5780 5779 5777 5776 5774
5819 5818 5817 5816 5815 5814 5812 5811 5809 5808 5806 5805 5803 5801 5800 5799 5798 5796 5795 5794 5793 5792 5790 5790 5789 5788 5787 5786 5785 5784 5783 5782 5780 5779 5778 5776 5775 5773 5771 5770 5768 5767 5766
5810 5809 5808 5806 5805 5804 5803 5801 5800 5799 5797 5796 5794 5793 5792 5791 5790 5789 5787 5786 5785 5783 5782 5781 5780 5779 5778 5778 5776 5776 5774 5773 5772 5770 5769 5767 5766 5764 5763 5761 5759 5758 5757
5801 5799 5798 5797 5795 5794 5793 5792 5791 5789 5788 5787 5786 5784 5783 5782 5781 5780 5778 5777 5776 5775 5774 5773 5772 5771 5770 5769 5768 5767 5765 5764 5763 5762 5760 5758 5757 5756 5754 5752 5750 5749 5747
5792 5791 5789 5787 5786 5784 5783 5782 5781 5780 5779 5777 5776 5775 5774 5773 5772 5770 5769 5768 5767 5766 5765 5764 5763 5762 5761 5760 5759 5757 5756 5755 5754 5753 5751 5750 5748 5746 5745 5743 5741 5740 5738
5783 5781 5780 5778 5776 5774 5773 5772 5771 5770 5769 5768 5766 5765 5764 5763 5762 5760 5759 5758 5757 5756 5755 5754 5753 5752 5751 5750 5749 5747 5746 5745 5744 5743 5741 5740 5738 5737 5735 5733 5732 5730 5728
5774 5772 5770 5769 5767 5765 5764 5762 5761 5760 5759 5758 5756 5755 5754 5753 5752 5751 5749 5749 5747 5746 5745 5744 5743 5742 5741 5740 5739 5737 5736 5735 5734 5733 5731 5730 5729 5727 5726 5724 5722 5720 5718
5764 5762 5761 5759 5757 5755 5754 5752 5751 5750 5748 5747 5745 5744 5743 5742 5741 5741 5740 5739 5738 5737 5735 5734 5733 5732 5731 5730 5728 5727 5726 5725 5724 5722 5721 5720 5719 5718 5716 5714 5713 5711 5708
5754 5752 5750 5749 5747 5745 5744 5742 5740 5739 5738 5736 5735 5733 5732 5731 5731 5730 5729 5728 5728 5726 5725 5724 5723 5722 5721 5720 5718 5717 5716 5715 5714 5713 5712 5710 5709 5707 5706 5704 5702 5701 5699
5744 5742 5740 5739 5737 5735 5733 5731 5730 5728 5727 5726 5724 5723 5722 5721 5720 5719 5719 5718 5717 5716 5715 5714 5713 5712 5711 5710 5709 5707 5706 5705 5704 5703 5702 5700 5699 5697 5696 5694 5692 5691 5689
5734 5732 5730 5728 5726 5725 5723 5721 5719 5718 5717 5715 5714 5713 5711 5710 5709 5708 5708 5707 5707 5706 5705 5704 5703 5702 5701 5700 5698 5697 5696 5695 5694 5693 5692 5690 5689 5687 5686 5684 5682 5681 5679
5725 5722 5720 5718 5716 5714 5713 5711 5709 5708 5706 5705 5704 5703 5701 5700 5699 5698 5697 5697 5697 5696 5696 5695 5694 5692 5691 5690 5689 5687 5686 5685 5684 5683 5682 5680 5679 5677 5676 5674 5673 5671 5670
5715 5712 5710 5708 5706 5704 5702 5701 5699 5697 5696 5694 5693 5692 5691 5690 5689 5688 5688 5687 5686 5686 5685 5684 5683 5682 5682 5680 5679 5677 5676 5675 5674 5673 5672 5670 5669 5668 5666 5664 5663 5661 5660
5706 5703 5701 5698 5696 5694 5693 5691 5689 5688 5686 5684 5683 5682 5681 5680 5679 5678 5678 5677 5676 5675 5675 5674 5673 5672 5671 5670 5669 5667 5666 5665 5664 5663 5661 5660 5659 5658 5656 5655 5653 5652 5650
5696 5694 5691 5689 5687 5685 5684 5682 5680 5678 5676 5675 5673 5672 5671 5670 5669 5668 5667 5667 5666 5665 5664 5663 5662 5662 5660 5659 5658 5657 5656 5655 5653 5652 5651 5650 5649 5648 5647 5645 5644 5642 5641
5687 5685 5682 5680 5678 5677 5674 5672 5670 5668 5666 5665 5663 5662 5661 5659 5658 5658 5657 5656 5655 5654 5653 5653 5652 5651 5650 5649 5648 5647 5646 5644 5643 5642 5641 5640 5639 5638 5637 5636 5634 5633 5632
5678 5676 5674 5671 5669 5667 5665 5663 5661 5660 5657 5655 5654 5652 5651 5649 5648 5647 5646 5645 5645 5644 5643 5642 5641 5640 5639 5638 5637 5636 5635 5634 5633 5632 5631 5630 5629 5628 5627 5626 5625 5623 5622
5671 5668 5666 5663 5661 5659 5656 5655 5653 5651 5649 5647 5645 5643 5642 5640 5639 5637 5636 5635 5635 5634 5633 5632 5631 5630 5629 5628 5627 5627 5626 5625 5623 5622 5621 5621 5620 5619 5617 5616 5615 5614 5613
Wind_Speed
17 17 17 17 16 16 17 18 18 19 18 18 18 18 18 19 19 18 18 17 17 17 17 17 17 17 17 17 17 16 17 16 17 17 17 16 16 16 16 17 17 18 17
18 18 18 18 18 18 19 19 20 20 20 20 19 19 19 20 19 19 19 19 18 18 18 18 18 18 18 18 18 18 18 18 18 18 18 18 17 17 17 18 18 19 19
21 21 20 20 20 20 20 20 21 21 21 21 21 21 21 21 21 21 21 20 20 20 20 19 19 19 19 20 19 19 19 20 20 20 20 20 20 20 20 20 20 20 21
22 22 22 22 21 21 21 21 21 21 21 21 22 22 22 22 23 22 22 22 21 21 21 21 20 20 21 21 21 21 21 21 21 22 21 21 21 21 22 22 22 22 23
23 23 23 23 23 23 23 23 23 22 22 22 22 23 23 23 22 23 23 23 23 22 22 22 22 22 22 22 23 23 23 23 23 23 23 23 23 23 23 24 24 24 24
24 24 25 24 24 24 24 24 24 24 24 23 24 24 24 24 23 22 22 23 23 23 22 23 23 23 23 23 24 24 24 24 24 24 24 25 25 24 24 25 25 25 25
26 26 26 26 25 25 25 25 26 25 25 25 25 25 24 24 24 23 23 23 24 24 24 23 24 23 24 25 25 25 26 26 26 26 26 25 26 26 26 26 26 26 26
28 28 27 27 27 27 26 26 27 27 27 27 26 26 25 24 24 24 25 24 25 25 26 25 25 25 25 25 26 27 27 27 27 28 28 28 28 28 28 28 28 28 29
29 30 29 29 29 29 29 28 28 28 28 28 27 26 25 24 24 24 25 25 26 26 27 27 27 26 26 27 28 28 28 28 28 28 29 29 30 30 30 29 29 29 28
30 30 30 30 30 31 31 30 30 30 29 29 28 27 26 25 25 25 26 26 26 26 27 27 27 27 28 28 28 29 29 29 29 30 30 30 30 30 30 30 30 30 29
31 31 30 31 31 31 32 32 31 31 30 30 29 29 28 27 27 27 27 27 28 28 28 28 28 28 29 29 29 29 30 29 30 30 30 30 30 29 29 30 30 30 30
31 31 31 31 31 32 33 33 32 32 31 31 30 29 28 28 28 28 29 29 29 29 29 29 29 29 29 29 29 29 29 29 30 30 31 30 30 30 30 30 29 30 31
31 31 31 32 32 32 33 33 32 32 32 31 31 30 30 30 30 30 30 30 30 30 30 29 30 30 30 30 30 30 30 30 31 31 31 31 31 31 30 30 30 30 31
31 31 32 32 32 32 32 32 33 33 33 32 32 31 31 32 32 31 31 30 31 31 30 30 30 30 30 30 31 31 31 32 32 32 32 31 31 31 31 31 31 31 32
32 32 33 33 33 32 32 33 34 34 33 33 33 33 33 32 32 32 32 31 31 31 31 31 31 31 31 31 31 31 31 31 31 32 32 32 32 32 32 32 33 33 33
33 33 33 33 34 34 33 33 34 34 33 33 33 33 33 33 32 32 32 32 32 32 32 32 32 32 32 32 31 31 31 32 32 32 32 32 32 33 33 33 34 33 33
33 33 33 33 33 33 34 34 34 33 33 33 33 33 33 33 33 33 33 33 33 32 33 32 32 32 32 32 32 32 31 31 31 31 31 32 33 33 34 34 33 33 32
32 32 33 33 33 33 34 34 34 34 33 33 33 34 34 34 33 33 34 34 33 33 32 32 32 32 32 32 32 32 31 31 31 30 31 31 32 33 34 35 34 33 33
32 32 32 33 33 33 33 33 33 34 34 34 34 33 33 33 33 33 33 33 33 33 33 33 33 33 33 32 32 31 31 31 31 31 31 32 33 33 33 33 33 32 32
31 30 31 31 32 32 32 31 32 33 33 34 33 33 33 32 32 32 32 33 33 33 34 34 34 34 33 33 32 32 32 32 32 32 33 33 33 33 33 32 32 32 31
30 30 30 30 31 30 30 30 30 31 31 32 32 32 31 31 31 31 32 33 34 34 34 34 33 33 33 33 32 32 32 32 32 33 33 33 33 33 32 32 32 31 30
29 30 30 29 28 27 27 28 28 28 29 30 30 31 30 31 31 31 31 32 33 33 33 33 33 33 33 32 32 32 31 31 32 32 33 32 32 31 31 31 30 30 30
29 28 28 28 28 28 28 29 29 29 29 30 31 31 31 32 32 32 32 32 33 33 32 33 33 32 31 31 31 31 31 31 31 31 30 30 31 31 31 30 30 29 29
28 28 28 28 28 29 29 29 29 29 29 29 30 31 31 32 32 32 33 33 32 32 32 32 32 32 31 31 31 31 31 31 30 29 29 30 30 30 30 29 29 30 29
26 27 27 27 28 28 28 28 28 28 29 28 29 29 29 29 30 31 31 31 31 31 31 31 31 30 30 30 31 31 30 30 29 30 30 30 30 29 29 28 28 28 28
26 26 27 27 26 27 27 28 28 28 28 28 27 28 28 27 28 28 28 28 29 30 30 30 30 30 30 30 29 29 28 28 28 29 29 29 29 29 28 28 28 28 27
Wind_Direction
284 284 284 286 287 287 286 287 289 288 286 286 287 286 286 288 291 293 294 293 287 285 286 286 287 284 284 283 284 283 283 283 284 285 286 286 285 285 283 283 283 282 282
284 284 283 284 286 285 285 284 288 286 287 286 286 285 286 287 287 289 290 290 284 282 283 284 283 283 282 282 281 282 282 282 282 284 284 284 285 285 285 284 284 284 283
282 282 282 282 283 284 285 286 287 287 287 287 285 285 286 286 285 286 287 286 282 280 281 281 280 279 278 278 279 280 281 282 282 283 283 283 283 284 284 285 285 285 285
279 280 281 280 281 282 284 286 287 286 286 286 285 285 285 285 283 284 283 282 281 278 279 278 278 279 279 279 279 280 280 281 282 282 282 282 283 283 284 285 286 286 286
278 279 280 280 281 282 283 285 286 287 287 288 286 285 285 285 284 283 281 280 280 280 279 279 280 280 281 281 280 281 281 281 281 282 281 281 281 283 283 284 286 285 286
281 281 281 282 281 282 282 282 283 285 286 286 285 284 283 284 285 285 283 281 280 280 282 280 279 280 281 280 280 281 281 281 282 282 281 281 282 283 283 284 285 285 285
280 281 281 281 281 281 280 281 282 283 284 283 283 283 283 283 284 283 282 280 279 280 281 281 279 279 280 280 280 280 282 282 282 282 282 282 283 283 284 284 284 286 285
277 279 278 280 281 281 281 282 282 282 282 282 282 282 282 281 282 281 279 281 281 280 280 279 278 277 278 281 280 281 281 281 282 281 281 282 283 285 285 284 284 286 286
280 279 279 278 279 280 281 282 283 283 282 282 281 281 281 281 281 280 279 280 281 281 280 279 278 277 278 279 280 281 281 281 281 281 281 282 283 284 284 284 285 286 286
280 280 279 279 278 279 280 280 282 283 284 284 281 278 278 280 281 282 281 281 281 282 281 280 280 278 277 278 279 280 280 281 281 281 282 282 283 283 283 284 284 285 285
280 280 280 279 278 279 280 281 282 283 283 283 281 278 277 278 280 282 283 283 282 281 281 280 280 279 278 278 279 279 279 280 280 281 282 283 283 284 284 283 283 284 284
280 280 281 280 279 279 280 280 280 281 282 281 279 278 277 278 280 281 281 282 282 280 280 280 280 281 280 279 279 279 279 279 280 281 281 282 283 284 285 285 284 284 284
280 279 280 282 282 281 281 280 278 278 279 279 277 277 276 278 279 280 280 280 280 280 279 279 281 281 281 280 280 280 279 279 280 282 282 281 282 283 286 285 284 284 284
280 280 280 282 284 283 281 280 278 277 277 278 276 276 277 278 279 279 279 278 277 277 277 278 279 280 281 281 281 281 281 280 280 282 282 280 280 281 282 283 283 283 284
281 281 281 282 283 283 281 280 279 278 276 276 276 276 276 277 278 278 279 280 279 277 277 278 280 281 282 283 282 281 280 280 280 281 281 280 279 279 280 282 283 284 285
282 282 283 283 283 282 281 280 280 279 277 278 277 277 275 275 277 278 278 279 279 278 278 279 279 281 283 284 284 282 281 280 279 280 279 279 279 280 282 282 282 283 284
282 282 282 283 282 281 282 282 281 279 278 278 277 277 278 277 276 276 276 277 278 279 280 280 280 280 282 282 283 283 282 280 279 280 280 280 280 281 282 282 282 283 284
284 283 282 282 281 282 282 282 280 278 278 278 279 279 279 278 276 274 274 276 277 279 281 281 280 280 281 282 282 282 281 281 281 280 281 281 280 280 281 281 281 282 284
285 284 282 281 281 281 282 282 281 280 280 280 279 280 279 278 276 275 275 275 276 278 280 282 281 280 282 282 282 281 280 280 280 280 280 281 281 281 280 280 281 282 283
286 284 283 282 282 282 283 284 282 281 282 281 280 280 279 278 277 276 276 275 276 277 278 279 280 281 283 283 283 282 280 279 278 278 279 280 280 281 281 281 282 283 282
288 287 285 283 281 280 282 284 284 284 284 282 281 280 279 278 276 276 277 277 277 277 277 278 279 280 281 282 281 281 280 279 278 279 279 279 280 281 282 282 283 282 281
289 288 286 283 282 281 283 286 286 286 285 283 282 279 277 277 277 277 278 278 278 279 279 279 279 281 281 279 279 280 280 279 278 277 278 279 281 282 282 283 284 283 282
289 289 289 287 285 285 286 287 286 285 284 283 282 281 279 278 277 278 278 279 279 279 279 280 280 280 280 280 279 279 279 281 281 279 279 279 280 280 281 281 282 282 283
289 289 289 289 287 285 286 287 286 285 285 284 283 283 281 280 279 278 278 279 280 280 280 280 280 279 280 279 278 278 279 278 279 279 280 280 280 280 280 280 280 281 282
292 291 291 290 289 287 286 287 288 288 287 286 285 284 285 284 281 280 279 278 278 279 280 281 281 279 280 280 279 278 278 278 277 279 280 280 280 279 280 281 282 282 282
293 294 293 292 292 291 290 289 290 290 291 289 287 285 285 286 285 281 279 278 279 279 279 280 279 279 280 280 280 279 279 279 279 279 280 281 281 280 280 281 281 282 282